Simultaneous Nadir Overpasses (SNOs) Predictions

Prediction of SNOs between METOP-B and NOAA-19 Satellite Orbit:

Table of predicted SNOs for the next 14.0 days since TLE Epoch: 11/30/2024
Index Date (METOP-B) Time (METOP-B) Lat,Lon (METOP-B) SZA (METOP-B ) Date (NOAA-19) Time (NOAA-19) Lat,Lon (NOAA-19) SZA (NOAA-19 ) Distance(km) Time Diff (sec)
1 12/03/2024 11:19:10 79.72, 93.01 110.99 12/03/2024 11:17:56 79.73, 92.96 110.92 0.98 74
2 12/03/2024 12:09:49 -79.68, -99.31 68.96 12/03/2024 12:08:47 -79.67, -99.23 68.99 1.91 62
3 12/03/2024 13:00:27 79.62, 68.53 111.13 12/03/2024 12:59:48 79.61, 68.67 111.12 3.02 39
4 12/03/2024 13:51:06 -79.58,-123.80 68.81 12/03/2024 13:50:40 -79.58,-123.82 68.84 0.72 26
5 12/03/2024 14:41:45 79.51, 44.05 111.28 12/03/2024 14:41:42 79.51, 44.07 111.28 0.41 3
6 12/03/2024 15:32:24 -79.47,-148.29 68.67 12/03/2024 15:32:33 -79.46,-148.15 68.64 3.26 9
7 12/03/2024 16:23:03 79.41, 19.54 111.42 12/03/2024 16:23:36 79.42, 19.45 111.43 2.21 33
8 12/03/2024 17:13:42 -79.37,-172.81 68.53 12/03/2024 17:14:27 -79.36,-172.78 68.49 0.63 45



Historial Predications of SNOs between METOP-B and NOAA-19
